Total_Precipitation_Accumulation
0.59 0.69 0.57 0.38 0.31 0.27 0.23 0.22 0.17 0.13 0.12 0.14 0.11 0.07 0.03 0.04 0.05 0.04 0.03 0.03 0.02 0.01 0.01 0.01 0.02 0.02 0.03 0.06 0.09 0.10 0.12 0.18 0.21 0.21 0.26 0.30 0.28 0.29 0.32 0.31 0.28 0.30 0.32 0.33
0.64 0.48 0.25 0.20 0.22 0.28 0.29 0.26 0.20 0.14 0.11 0.15 0.13 0.07 0.03 0.03 0.04 0.04 0.03 0.03 0.02 0.02 0.01 0.02 0.03 0.04 0.03 0.04 0.07 0.10 0.11 0.14 0.20 0.20 0.21 0.25 0.26 0.28 0.30 0.31 0.32 0.32 0.32 0.32
0.55 0.28 0.16 0.22 0.31 0.37 0.37 0.29 0.20 0.19 0.17 0.16 0.15 0.11 0.04 0.03 0.03 0.03 0.03 0.02 0.02 0.02 0.02 0.03 0.04 0.05 0.05 0.05 0.06 0.09 0.10 0.11 0.17 0.23 0.25 0.30 0.34 0.32 0.34 0.33 0.31 0.32 0.33 0.32
0.43 0.23 0.23 0.28 0.29 0.32 0.33 0.21 0.19 0.24 0.33 0.33 0.22 0.20 0.06 0.03 0.04 0.03 0.02 0.02 0.01 0.02 0.01 0.02 0.03 0.04 0.06 0.07 0.08 0.10 0.13 0.12 0.13 0.19 0.28 0.31 0.33 0.30 0.26 0.25 0.28 0.30 0.32 0.32
0.49 0.24 0.27 0.30 0.20 0.20 0.23 0.19 0.24 0.30 0.41 0.40 0.25 0.24 0.08 0.03 0.04 0.03 0.01 0.01 0.01 0.01 0.01 0.02 0.01 0.02 0.04 0.06 0.08 0.09 0.14 0.16 0.15 0.15 0.20 0.28 0.32 0.32 0.32 0.32 0.32 0.33 0.35 0.34
0.38 0.27 0.29 0.25 0.16 0.19 0.28 0.35 0.45 0.49 0.65 0.66 0.21 0.17 0.09 0.05 0.04 0.02 0.01 0.01 0.02 0.02 0.02 0.03 0.03 0.03 0.03 0.04 0.06 0.10 0.12 0.16 0.16 0.18 0.19 0.25 0.30 0.34 0.38 0.42 0.39 0.35 0.35 0.36
0.48 0.35 0.33 0.29 0.32 0.35 0.50 0.78 1.11 1.14 1.02 0.53 0.09 0.10 0.09 0.05 0.04 0.02 0.01 0.01 0.01 0.03 0.03 0.03 0.03 0.05 0.06 0.04 0.05 0.09 0.12 0.15 0.17 0.18 0.21 0.23 0.26 0.30 0.34 0.39 0.40 0.39 0.36 0.38
0.54 0.42 0.29 0.28 0.34 0.42 0.46 0.62 0.83 0.80 0.48 0.17 0.06 0.07 0.06 0.05 0.03 0.01 0.01 0.01 0.02 0.03 0.03 0.03 0.03 0.03 0.04 0.04 0.05 0.08 0.10 0.13 0.17 0.19 0.21 0.23 0.26 0.28 0.28 0.33 0.39 0.41 0.38 0.37
0.58 0.38 0.17 0.16 0.20 0.31 0.47 0.44 0.38 0.56 0.43 0.26 0.13 0.08 0.05 0.03 0.02 0.02 0.02 0.02 0.03 0.03 0.03 0.03 0.03 0.02 0.03 0.03 0.04 0.06 0.08 0.09 0.12 0.17 0.23 0.25 0.25 0.27 0.26 0.27 0.33 0.38 0.37 0.35
0.72 0.56 0.26 0.20 0.28 0.33 0.38 0.45 0.55 0.83 0.76 0.40 0.14 0.07 0.07 0.04 0.03 0.03 0.03 0.04 0.05 0.04 0.04 0.04 0.03 0.03 0.03 0.04 0.04 0.06 0.09 0.10 0.11 0.13 0.18 0.23 0.25 0.26 0.27 0.27 0.29 0.34 0.38 0.39
0.73 0.79 0.51 0.40 0.42 0.38 0.36 0.52 0.73 0.81 0.62 0.43 0.23 0.11 0.10 0.07 0.04 0.04 0.04 0.04 0.06 0.07 0.08 0.07 0.05 0.03 0.04 0.05 0.06 0.07 0.11 0.12 0.13 0.14 0.15 0.20 0.26 0.29 0.32 0.35 0.36 0.37 0.41 0.47
0.71 0.94 0.71 0.46 0.32 0.26 0.33 0.39 0.54 0.77 0.61 0.36 0.30 0.14 0.08 0.06 0.05 0.04 0.04 0.04 0.06 0.08 0.10 0.09 0.06 0.05 0.06 0.07 0.09 0.11 0.14 0.15 0.16 0.16 0.18 0.19 0.25 0.32 0.37 0.41 0.43 0.46 0.49 0.52
1.01 1.29 1.09 0.75 0.57 0.52 0.54 0.45 0.45 0.60 0.66 0.50 0.40 0.17 0.05 0.04 0.05 0.05 0.04 0.05 0.06 0.08 0.08 0.08 0.08 0.08 0.09 0.10 0.11 0.15 0.18 0.17 0.18 0.19 0.20 0.22 0.27 0.34 0.42 0.47 0.50 0.51 0.55 0.60
1.27 1.37 1.02 0.77 0.57 0.54 0.57 0.46 0.43 0.62 0.85 0.56 0.27 0.12 0.05 0.04 0.06 0.06 0.05 0.06 0.06 0.05 0.07 0.09 0.09 0.09 0.11 0.12 0.13 0.17 0.21 0.20 0.22 0.25 0.27 0.31 0.38 0.43 0.48 0.53 0.54 0.55 0.57 0.63
1.35 1.33 0.72 0.40 0.26 0.26 0.31 0.30 0.32 0.43 0.45 0.40 0.21 0.13 0.10 0.08 0.08 0.08 0.08 0.07 0.06 0.06 0.08 0.11 0.11 0.10 0.13 0.14 0.16 0.20 0.25 0.28 0.33 0.39 0.41 0.42 0.43 0.47 0.47 0.49 0.52 0.55 0.59 0.62
1.18 1.19 0.71 0.47 0.27 0.26 0.28 0.23 0.22 0.26 0.24 0.21 0.16 0.15 0.10 0.07 0.06 0.06 0.06 0.09 0.08 0.08 0.09 0.09 0.12 0.13 0.13 0.18 0.24 0.30 0.37 0.40 0.43 0.48 0.50 0.49 0.44 0.44 0.49 0.50 0.50 0.53 0.57 0.58
1.06 1.11 1.03 0.67 0.35 0.48 0.49 0.25 0.22 0.23 0.22 0.19 0.20 0.16 0.11 0.07 0.06 0.06 0.06 0.09 0.10 0.09 0.09 0.10 0.13 0.17 0.18 0.24 0.32 0.39 0.43 0.45 0.47 0.50 0.54 0.56 0.49 0.45 0.47 0.49 0.48 0.47 0.48 0.50
0.78 0.89 1.23 0.94 0.68 0.87 0.41 0.16 0.17 0.19 0.19 0.20 0.18 0.16 0.12 0.10 0.07 0.06 0.07 0.10 0.12 0.14 0.15 0.15 0.17 0.20 0.24 0.30 0.36 0.42 0.46 0.49 0.50 0.50 0.49 0.50 0.44 0.38 0.41 0.46 0.45 0.41 0.41 0.45
0.44 0.76 1.28 1.19 0.92 0.51 0.16 0.10 0.15 0.21 0.26 0.23 0.21 0.19 0.16 0.13 0.10 0.11 0.12 0.12 0.13 0.14 0.14 0.14 0.14 0.16 0.22 0.27 0.32 0.34 0.38 0.40 0.40 0.40 0.38 0.38 0.36 0.35 0.39 0.44 0.41 0.37 0.36 0.38
0.43 0.72 1.34 1.32 1.04 0.51 0.18 0.08 0.11 0.20 0.30 0.22 0.19 0.20 0.19 0.21 0.34 0.23 0.18 0.13 0.11 0.09 0.09 0.10 0.11 0.11 0.14 0.18 0.21 0.23 0.25 0.27 0.30 0.30 0.31 0.35 0.32 0.30 0.35 0.41 0.39 0.37 0.36 0.37
0.73 1.11 1.33 1.12 0.96 0.43 0.15 0.09 0.13 0.34 0.41 0.24 0.21 0.21 0.25 0.34 0.40 0.26 0.18 0.15 0.12 0.10 0.09 0.10 0.12 0.15 0.17 0.20 0.21 0.21 0.19 0.20 0.21 0.23 0.26 0.33 0.35 0.32 0.33 0.35 0.37 0.37 0.37 0.38
0.62 0.85 0.89 0.87 1.05 0.55 0.17 0.16 0.30 0.42 0.28 0.23 0.24 0.26 0.32 0.30 0.21 0.18 0.18 0.17 0.14 0.13 0.13 0.13 0.16 0.22 0.26 0.26 0.21 0.18 0.16 0.14 0.15 0.19 0.22 0.27 0.35 0.33 0.32 0.33 0.34 0.34 0.38 0.41
0.48 0.61 0.65 0.65 0.59 0.33 0.23 0.27 0.29 0.28 0.27 0.29 0.37 0.37 0.35 0.32 0.26 0.24 0.21 0.17 0.15 0.14 0.15 0.16 0.18 0.23 0.27 0.24 0.18 0.16 0.15 0.13 0.14 0.17 0.21 0.26 0.32 0.31 0.31 0.32 0.34 0.34 0.36 0.42
0.32 0.34 0.45 0.44 0.33 0.24 0.21 0.19 0.18 0.20 0.25 0.28 0.31 0.34 0.37 0.40 0.33 0.28 0.25 0.22 0.19 0.18 0.18 0.17 0.17 0.20 0.24 0.20 0.16 0.15 0.14 0.12 0.13 0.16 0.22 0.27 0.31 0.33 0.33 0.32 0.32 0.35 0.41 0.55
0.27 0.28 0.32 0.31 0.26 0.22 0.22 0.21 0.21 0.22 0.20 0.18 0.19 0.24 0.34 0.40 0.36 0.28 0.25 0.25 0.25 0.24 0.22 0.21 0.21 0.23 0.22 0.17 0.13 0.14 0.17 0.18 0.19 0.20 0.24 0.29 0.33 0.35 0.35 0.34 0.34 0.39 0.43 0.67
0.24 0.26 0.28 0.28 0.22 0.23 0.24 0.21 0.21 0.23 0.22 0.22 0.23 0.24 0.25 0.28 0.28 0.24 0.25 0.26 0.26 0.27 0.28 0.26 0.23 0.19 0.17 0.16 0.14 0.15 0.17 0.21 0.23 0.24 0.26 0.30 0.36 0.38 0.37 0.36 0.37 0.39 0.42 0.53